Weather History for Somerville, NJ

Change the Weather History Date:

Saturday, March 16, 2013

  Actual Average Record
Temperature  
Mean Temperature 36 °F -  
Max Temperature 43 °F 49 °F 80 °F (1945)
Min Temperature 28 °F 27 °F 12 °F (1932)
Degree Days  
Heating Degree Days 30    
Moisture  
Dew Point 28 °F    
Average Humidity 79    
Maximum Humidity 93    
Minimum Humidity 50    
Precipitation  
Precipitation 0.05 in - - ()
Sea Level Pressure  
Sea Level Pressure 29.81 in    
Wind  
Wind Speed 3 mph (North)    
Max Wind Speed 7 mph    
Max Gust Speed -    
Visibility 6 miles    
Events Snow    
Averages and records for this station are not official NWS values.
T = Trace of Precipitation, MM = Missing Value Source: NWS Daily Summary

Daily Weather History Graph

Daily Weather History Graph

Search for Another Location

Airport:

Trip Planner

Search our weather history database for the weather conditions in past years. The results will help you decide how hot, cold, wet, or windy it might be!

Date:

Astronomy

Mar. 16, 2013 Rise Set
Actual Time 7:08 AM EDT 7:06 PM EDT
Civil Twilight 6:41 AM EDT 7:34 PM EDT
Nautical Twilight 6:09 AM EDT 8:05 PM EDT
Astronomical Twilight 5:37 AM EDT 8:38 PM EDT
Moon 9:34 AM EDT (3/16) No Moon Set
Length of Visible Light 12h 52m
Length of Day
11h 58m
Waxing Crescent, 23% of the Moon is Illuminated
Mar 16
Waxing Crescent
Mar 19
First Quarter
Mar 27
Full
Apr 3
Last Quarter
Apr 10
New

Hourly Weather History & Observations

Time (EDT) Temp. Windchill Dew Point Humidity Pressure Visibility Wind Dir Wind Speed Gust Speed Precip Events Conditions
12:53 AM 43.0 °F 38.8 °F 28.9 °F 58% 29.78 in 10.0 mi North 6.9 mph - N/A   Overcast
1:53 AM 41.0 °F 36.4 °F 26.1 °F 55% 29.79 in 10.0 mi NNW 6.9 mph - N/A   Clear
2:53 AM 37.9 °F 33.5 °F 25.0 °F 60% 29.81 in 10.0 mi North 5.8 mph - N/A   Clear
3:53 AM 37.0 °F - 24.1 °F 59% 29.81 in 10.0 mi Calm Calm - N/A   Clear
4:53 AM 34.0 °F 29.8 °F 23.0 °F 64% 29.81 in 10.0 mi NNW 4.6 mph - N/A   Clear
5:53 AM 28.9 °F - 24.1 °F 82% 29.83 in 10.0 mi Calm Calm - N/A   Clear
6:53 AM 30.0 °F - 23.0 °F 75% 29.83 in 10.0 mi Calm Calm - N/A   Clear
7:53 AM 30.0 °F - 24.1 °F 79% 29.85 in 10.0 mi Calm Calm - N/A   Overcast
8:53 AM 34.0 °F - 23.0 °F 64% 29.85 in 10.0 mi Calm Calm - N/A   Overcast
9:53 AM 36.0 °F 31.1 °F 21.0 °F 55% 29.85 in 10.0 mi North 5.8 mph - N/A   Overcast
10:53 AM 37.0 °F 34.5 °F 19.9 °F 50% 29.84 in 10.0 mi NNE 3.5 mph - N/A   Overcast
11:53 AM 37.0 °F 34.5 °F 23.0 °F 57% 29.83 in 10.0 mi NW 3.5 mph - 0.00 in   Overcast
12:48 PM 35.6 °F - 24.8 °F 65% 29.82 in 2.5 mi Calm Calm - 0.00 in Snow Light Snow
12:53 PM 36.0 °F - 26.1 °F 67% 29.82 in 5.0 mi Calm Calm - 0.00 in Snow Light Snow
1:03 PM 33.8 °F - 26.6 °F 75% 29.82 in 1.5 mi Calm Calm - 0.00 in Snow Light Snow
1:10 PM 33.8 °F 30.8 °F 28.4 °F 81% 29.82 in 0.8 mi South 3.5 mph - 0.00 in Snow Light Snow
1:18 PM 33.8 °F 30.8 °F 28.4 °F 81% 29.82 in 1.2 mi SSW 3.5 mph - 0.00 in Snow Light Snow
1:41 PM 33.8 °F - 30.2 °F 87% 29.81 in 0.8 mi Calm Calm - 0.01 in Snow Light Snow
1:53 PM 34.0 °F - 30.0 °F 85% 29.81 in 1.0 mi Calm Calm - 0.01 in Snow Light Snow
2:29 PM 33.8 °F - 30.2 °F 87% 29.81 in 0.8 mi Calm Calm - 0.01 in Snow Light Snow
2:45 PM 33.8 °F - 30.2 °F 87% 29.78 in 0.8 mi Calm Calm - 0.02 in Snow Light Snow
2:47 PM 33.8 °F - 32.0 °F 93% 29.78 in 1.0 mi Calm Calm - 0.02 in Snow Light Snow
2:53 PM 34.0 °F - 32.0 °F 92% 29.79 in 2.0 mi Calm Calm - 0.02 in Snow Light Snow
2:59 PM 33.8 °F - 30.2 °F 87% 29.78 in 3.0 mi Calm Calm - 0.00 in Snow Light Snow
3:07 PM 33.8 °F - 32.0 °F 93% 29.78 in 2.0 mi Calm Calm - 0.01 in Snow Light Snow
3:21 PM 35.6 °F - 30.2 °F 81% 29.78 in 3.0 mi Calm Calm - 0.01 in Snow Light Snow
3:28 PM 35.6 °F 32.8 °F 30.2 °F 81% 29.78 in 2.0 mi North 3.5 mph - 0.01 in Snow Light Snow
3:34 PM 35.6 °F 32.8 °F 30.2 °F 81% 29.78 in 3.0 mi NNE 3.5 mph - 0.01 in Snow Light Snow
3:53 PM 35.1 °F 32.2 °F 30.9 °F 85% 29.78 in 9.0 mi NE 3.5 mph - 0.01 in   Overcast
4:02 PM 35.6 °F 31.7 °F 30.2 °F 81% 29.77 in 10.0 mi Variable 4.6 mph - N/A   Overcast
4:09 PM 35.6 °F 31.7 °F 30.2 °F 81% 29.77 in 1.8 mi Variable 4.6 mph - 0.00 in Snow Light Snow
4:28 PM 33.8 °F - 32.0 °F 93% 29.77 in 3.0 mi Calm Calm - 0.00 in Snow Light Snow
4:53 PM 35.1 °F 32.2 °F 30.9 °F 85% 29.79 in 5.0 mi NE 3.5 mph - 0.01 in Snow Light Snow
5:13 PM 35.6 °F 32.8 °F 32.0 °F 87% 29.77 in 7.0 mi ENE 3.5 mph - 0.00 in   Overcast
5:25 PM 33.8 °F - 30.2 °F 87% 29.77 in 6.0 mi Calm Calm - 0.00 in   Overcast
5:53 PM 34.0 °F - 32.0 °F 92% 29.79 in 4.0 mi Calm Calm - 0.00 in   Overcast
6:30 PM 33.8 °F - 32.0 °F 93% 29.78 in 6.0 mi Calm Calm - N/A   Overcast
6:53 PM 34.0 °F - 32.0 °F 92% 29.80 in 8.0 mi Calm Calm - N/A   Overcast
7:31 PM 33.8 °F 30.8 °F 30.2 °F 87% 29.81 in 10.0 mi North 3.5 mph - N/A   Overcast
7:53 PM 34.0 °F 31.0 °F 30.9 °F 89% 29.82 in 10.0 mi North 3.5 mph - N/A   Overcast
8:53 PM 34.0 °F - 30.9 °F 89% 29.86 in 10.0 mi Calm Calm - N/A   Overcast
9:31 PM 33.8 °F - 30.2 °F 87% 29.86 in 10.0 mi Calm Calm - N/A   Overcast
9:53 PM 34.0 °F - 30.9 °F 89% 29.88 in 9.0 mi Calm Calm - N/A   Overcast
10:53 PM 34.0 °F 31.0 °F 30.9 °F 89% 29.90 in 10.0 mi NW 3.5 mph - N/A   Overcast
11:53 PM 34.0 °F - 28.9 °F 82% 29.92 in 10.0 mi Calm Calm - N/A   Overcast